Regional Weather Roundup
Issued by NWS

Home | Current Version | Previous Version | Text Only | Print | Product List | Glossary Off
Versions: 1 2 3 4 5 6 7 8 9 10 11 12 13 14 15 16 17 18 19 20 21 22 23 24 25 26 27 28 29 30 31 32 33 34 35 36 37 38 39 40 41 42 43 44 45 46 47 48 49 50

912
ASUS43 KMPX 210801
RWRMN
WEATHER ROUNDUP FOR MINNESOTA
NATIONAL WEATHER SERVICE TWIN CITIES/CHANHASSEN MN
300 AM CDT THU SEP 21 2017


NOTE: "FAIR" INDICATES FEW OR NO CLOUDS BELOW 12,000 FEET WITH NO
SIGNIFICANT WEATHER AND/OR OBSTRUCTIONS TO VISIBILITY. N/A MEANS
CURRENT SKY AND/OR WEATHER CONDITIONS ARE NOT AVAILABLE.

MNZ060>063-068>070-210900-
   Twin Cities Metro

CITY           SKY/WX    TMP DP  RH WIND       PRES   REMARKS
TWIN CITIES    CLEAR     58  54  86 CALM      29.99F
ST PAUL        CLEAR     54  52  93 MISG      30.00S
CRYSTAL        CLEAR     50  46  86 CALM      29.98S FOG
BLAINE         CLEAR     48  48 100 CALM      30.00S
LAKEVILLE      CLEAR     46  46 100 CALM      29.99F
EDEN PRAIRIE   CLEAR     53  51  93 CALM      29.98S
SOUTH ST PAUL  CLEAR     53  51  94 CALM      29.99F
LAKE ELMO      FAIR      48  48 100 CALM      30.00F
$$
MNZ001>005-007-008-013>017-022>024-027-028-210900-
   Northwest Minnesota

CITY           SKY/WX    TMP DP  RH WIND       PRES   REMARKS
BEMIDJI        CLEAR     43  40  89 SE3       29.94S
HALLOCK        CLOUDY    54  45  71 S13       29.80S
ROSEAU         CLEAR     54  45  71 S13       29.85S
WARROAD        CLEAR     52  45  76 S7        29.88R
CROOKSTON      CLEAR     54  45  71 S13       29.85F
FOSSTON        CLEAR     54  45  71 SE9       29.90S
DETROIT LAKES  CLEAR     52  46  82 SE7       29.93S
MOORHEAD       CLEAR     54  45  71 SE8       29.87F
PARK RAPIDS    CLEAR     51  44  77 SE6       29.95S
MAHNOMEN       FAIR      52  43  73 SE8       29.90S
$$
MNZ006-009>011-018-025>026-210900-
   North Central Minnesota

CITY           SKY/WX    TMP DP  RH WIND       PRES   REMARKS
BAUDETTE       CLEAR     51  45  79 S7        29.90R
FLAG ISLAND    CLEAR     59  50  72 S10       29.85S
INTL FALLS     CLEAR     44  40  85 SE3       29.96R
WASKISH        CLEAR     50  45  81 SE6       29.93S
BIG FORK       CLEAR     43  41  93 CALM      29.97F
LONGVILLE      CLEAR     39  39 100 CALM      29.96F FOG
GRAND RAPIDS   CLEAR     44  43  96 SE3       30.00F
CRANE LAKE     CLEAR     43  43 100 CALM      30.01S
ORR            CLEAR     46  43  87 CALM      29.97F
COOK           CLEAR     43  41  93 CALM      30.01R
WALKER         FAIR      52  44  73 S5        29.95S
$$
MNZ012-019>021-037-210900-
   Northeast Minnesota

CITY           SKY/WX    TMP DP  RH WIND       PRES   REMARKS
DULUTH         CLEAR     43  42  97 CALM      30.01S
ELY            CLEAR     39  39 100 CALM      30.01S
HIBBING        CLEAR     37  37 100 CALM      30.01S FOG
EVELETH        CLEAR     40  37  90 CALM      30.02S
DULUTH HARBOR  CLEAR     54  52  94 CALM      30.02R
SILVER BAY     CLEAR     41  41 100 CALM      30.01R
GRAND MARAIS     N/A     51  47  86 CALM      30.00S
$$
MNZ029>031-032-039>041-046>048-054>057-064-210900-
   West Central Minnesota

CITY           SKY/WX    TMP DP  RH WIND       PRES   REMARKS
FERGUS FALLS   CLOUDY    57  48  72 SE12      29.91F
WHEATON        CLEAR     48  46  93 SE9       29.91F
MORRIS         CLEAR     52  46  82 SE9       29.92F
ALEXANDRIA     CLEAR     52  46  80 SE8       29.96F
ELBOW LAKE     FAIR      53  47  82 E9        29.92F
WADENA         CLEAR     45  41  87 CALM      29.94F
GLENWOOD       CLEAR     48  46  93 SE8       29.96F
APPLETON       CLEAR     54  46  76 SE10      29.92F
BENSON         CLEAR     55  46  71 S6        29.96S
ORTONVILLE     CLEAR     52  46  82 NE9       29.91F
MADISON        CLEAR     54  54 100 SE10      29.92F
WILLMAR        FAIR      54  48  82 SE7       29.98S
$$
MNZ033>034-036-042>043-049>051-058-059-210900-
   Central Minnesota

CITY           SKY/WX    TMP DP  RH WIND       PRES   REMARKS
ST CLOUD       CLEAR     45  45 100 CALM      29.99S
SAUK CENTRE    FAIR      46  45  97 CALM      29.97F
PAYNESVILLE    CLEAR     55  49  80 SE8       29.98S
AITKIN         CLEAR     39  37  93 CALM      29.98F
PINE RIVER     CLEAR     41  39  93 CALM      30.00S FOG
BRAINERD       CLEAR     49  45  86 VRB6      29.97F
LITTLE FALLS   CLEAR     48  39  71 CALM      29.98S
LITCHFIELD     CLEAR     54  48  82 SE5       29.99S
BUFFALO        CLEAR     47  44  86 CALM      30.00S
MAPLE LAKE     CLEAR     46  46  99 CALM      30.00S
HUTCHINSON     CLEAR     48  46  93 E3        29.99F
$$
MNZ037-044-045-052-053-210900-
   East Central Minnesota

CITY           SKY/WX    TMP DP  RH WIND       PRES   REMARKS
PRINCETON      FOG       43  43 100 CALM      30.00S VSB 3/4
MORA           CLEAR     43  43 100 CALM      30.03R FOG
RUSH CITY      PTCLDY    43  42  97 CALM      30.01S
MOOSE LAKE     CLEAR     39  37  93 CALM      30.00R
HINCKLEY       FAIR      43  43 100 CALM      30.01S
CLOQUET        CLEAR     43  39  87 N3        30.01S
MCGREGOR       CLEAR     43  43 100 CALM      30.01S
$$
MNZ071>073-080-081-089-090-097-098-210900-
   Southwest Minnesota

CITY           SKY/WX    TMP DP  RH WIND       PRES   REMARKS
MONTEVIDEO     CLEAR     50  46  87 S7        29.94F
GRANITE FALLS  CLEAR     53  48  85 E7        29.97S
CANBY          CLEAR     51  46  84 SE6       29.94S
MARSHALL       CLEAR     54  47  77 SE13      29.94F
REDWOOD FALLS  CLEAR     54  46  74 SE7       29.96F
OLIVIA         CLEAR     55  46  71 E10       29.96F
PIPESTONE      CLEAR     54  45  71 SE6       29.94F
WORTHINGTON    CLEAR     50  46  86 SE7       29.97S
JACKSON        CLEAR     50  46  87 CALM      29.98S
TRACY          CLEAR     55  49  80 SE9       29.96S
SLAYTON        CLEAR     49  46  89 SE6       29.97S
$$
MNZ065>067-074>077-082>085-091>093-210900-
   South Central Minnesota

CITY           SKY/WX    TMP DP  RH WIND       PRES   REMARKS
MANKATO        CLEAR     57  49  74 E6        29.99S
NEW ULM        CLEAR     57  46  67 E8        29.97F
ST JAMES       CLEAR     54  48  82 E6        29.98F
FAIRMONT       CLEAR     52  48  86 E6        29.97F
GLENCOE        CLEAR     52  49  91 E3        29.98F
FARIBAULT      CLEAR     48  46  93 CALM      29.99F
OWATONNA       CLEAR     48  46  93 CALM      29.98F
WASECA         CLEAR     54  50  87 NE6       29.99F
ALBERT LEA     CLEAR     55  54  94 N3        29.97F
$$
MNZ078>079-086>088-094>096-210900-
   Southeast Minnesota

CITY           SKY/WX    TMP DP  RH WIND       PRES   REMARKS
ROCHESTER      CLEAR     54  51  90 N6        29.99F
RED WING       CLEAR     50  48  93 CALM      29.98F
STANTON        CLEAR     49  48  95 CALM      29.98F
DODGE CENTER   CLEAR     52  48  87 N5        29.99F
WINONA         CLEAR     55  54  94 NW5       29.97F
AUSTIN         CLEAR     54  50  87 N3        29.97F
PRESTON        CLEAR     55  51  87 N3        29.98F
$$
ABBREVIATIONS USED IN REMARKS
   TC - TEMPERATURES IN CELSIUS
  WCI - WIND CHILL INDEX
   HX - HEAT INDEX
  VSB - VISIBILITY
$$




USA.gov is the U.S. government's official web portal to all federal, state and local government web resources and services.